TimePST,TemperatureF,Dew PointF,Humidity,Sea Level PressureIn,VisibilityMPH,Wind Direction,Wind SpeedMPH,Gust SpeedMPH,PrecipitationIn,Events,Conditions,WindDirDegrees,DateUTC
12:56 AM,48.0,43.0,83,30.46,10.0,SSW,6.9,-,N/A,,Overcast,210,2013-02-13 08:56:00
1:56 AM,48.0,43.0,83,30.45,10.0,South,10.4,-,N/A,,Overcast,190,2013-02-13 09:56:00
2:56 AM,48.0,43.0,83,30.45,10.0,South,6.9,-,N/A,,Overcast,190,2013-02-13 10:56:00
3:56 AM,48.0,44.1,86,30.45,10.0,SSE,5.8,-,N/A,,Overcast,160,2013-02-13 11:56:00
4:56 AM,48.0,44.1,86,30.45,10.0,SSE,6.9,-,N/A,,Overcast,160,2013-02-13 12:56:00
5:56 AM,48.0,44.1,86,30.45,10.0,South,8.1,-,N/A,,Overcast,180,2013-02-13 13:56:00
6:56 AM,48.0,44.1,86,30.44,10.0,South,11.5,-,N/A,,Overcast,180,2013-02-13 14:56:00
7:56 AM,46.9,44.1,90,30.45,10.0,South,8.1,-,N/A,,Scattered Clouds,170,2013-02-13 15:56:00
8:56 AM,48.9,45.0,86,30.47,10.0,South,9.2,-,N/A,,Mostly Cloudy,170,2013-02-13 16:56:00
9:56 AM,50.0,45.0,83,30.48,10.0,South,5.8,-,N/A,,Overcast,190,2013-02-13 17:56:00
10:35 AM,50.0,44.6,82,30.49,10.0,South,5.8,-,N/A,,Overcast,180,2013-02-13 18:35:00
10:56 AM,51.1,45.0,80,30.49,10.0,SSW,6.9,-,N/A,,Overcast,200,2013-02-13 18:56:00
11:56 AM,52.0,45.0,77,30.48,10.0,SSW,8.1,-,N/A,,Overcast,210,2013-02-13 19:56:00
12:56 PM,52.0,46.0,80,30.46,10.0,South,9.2,-,N/A,,Overcast,190,2013-02-13 20:56:00
1:56 PM,53.1,45.0,74,30.45,10.0,SSW,11.5,-,N/A,,Overcast,200,2013-02-13 21:56:00
2:56 PM,53.1,44.1,71,30.44,10.0,SSW,6.9,-,N/A,,Overcast,200,2013-02-13 22:56:00
3:56 PM,53.1,41.0,64,30.45,10.0,Variable,5.8,-,N/A,,Overcast,0,2013-02-13 23:56:00
4:56 PM,51.1,41.0,68,30.45,10.0,NW,4.6,-,N/A,,Overcast,320,2013-02-14 00:56:00
5:56 PM,50.0,39.9,68,30.46,10.0,NW,8.1,-,N/A,,Overcast,310,2013-02-14 01:56:00
6:56 PM,50.0,39.9,68,30.47,10.0,NW,8.1,-,N/A,,Overcast,310,2013-02-14 02:56:00
7:56 PM,48.9,39.9,71,30.48,10.0,WNW,4.6,-,N/A,,Overcast,290,2013-02-14 03:56:00
8:56 PM,48.0,39.9,74,30.49,10.0,Calm,Calm,-,N/A,,Overcast,0,2013-02-14 04:56:00
9:56 PM,46.9,41.0,80,30.51,10.0,Calm,Calm,-,N/A,,Overcast,0,2013-02-14 05:56:00
10:56 PM,46.9,41.0,80,30.51,10.0,Calm,Calm,-,N/A,,Overcast,0,2013-02-14 06:56:00
11:56 PM,46.0,41.0,83,30.52,10.0,Calm,Calm,-,N/A,,Overcast,0,2013-02-14 07:56:00